Weather History for Ingleside, TX

Change the Weather History Date:

Sunday, November 6, 2011

  Actual Average Record
Temperature  
Mean Temperature 79 °F -  
Max Temperature 83 °F - - ()
Min Temperature 75 °F - - ()
Cooling Degree Days 14    
Growing Degree Days 29 (Base 50)    
Moisture  
Dew Point 70 °F    
Average Humidity 75    
Maximum Humidity 82    
Minimum Humidity 65    
Precipitation  
Precipitation 0.00 in - - ()
Sea Level Pressure  
Sea Level Pressure 29.95 in    
Wind  
Wind Speed 12 mph (SSE)    
Max Wind Speed 18 mph    
Max Gust Speed 25 mph    
Visibility 10 miles    
Events      
T = Trace of Precipitation, MM = Missing Value Source: NWS Daily Summary

Daily Weather History Graph

Daily Weather History Graph

Search for Another Location

Airport:

Trip Planner

Search our weather history database for the weather conditions in past years. The results will help you decide how hot, cold, wet, or windy it might be!

Date:

Astronomy

Nov. 06, 2011 Rise Set
Actual Time 6:43 AM CST 5:41 PM CST
Civil Twilight 6:18 AM CST 6:05 PM CST
Nautical Twilight 5:51 AM CST 6:33 PM CST
Astronomical Twilight 5:23 AM CST 7:01 PM CST
Moon 3:11 PM CST (11/6) 3:07 AM CST (11/6)
Length of Visible Light 11h 46m
Length of Day
10h 57m
Waxing Gibbous, 86% of the Moon is Illuminated
Nov 6
Waxing Gibbous
Nov 10
Full
Nov 18
Last Quarter
Nov 25
New
Dec 2
First Quarter

Hourly Weather History & Observations

Time (CST) Temp. Heat Index Dew Point Humidity Pressure Visibility Wind Dir Wind Speed Gust Speed Precip Events Conditions
12:15 AM 75.2 °F - 69.3 °F 82% 29.91 in 10.0 mi SSE 12.7 mph 19.6 mph N/A   Scattered Clouds
12:35 AM 75.6 °F - 68.7 °F 79% 29.91 in 10.0 mi SSE 11.5 mph 17.3 mph N/A   Scattered Clouds
12:55 AM 75.7 °F - 68.4 °F 78% 29.92 in 10.0 mi SSE 11.5 mph 16.1 mph N/A   Mostly Cloudy
1:15 AM 76.1 °F - 68.4 °F 77% 29.92 in 10.0 mi SSE 9.2 mph - N/A   Overcast
1:35 AM 76.3 °F - 68.7 °F 77% 29.92 in 10.0 mi SSE 9.2 mph - N/A   Overcast
1:55 AM 76.3 °F - 69.1 °F 78% 29.92 in 10.0 mi SSE 9.2 mph - N/A   Overcast
1:15 AM 76.5 °F - 69.4 °F 79% 29.92 in 10.0 mi SSE 11.5 mph - N/A   Overcast
1:35 AM 76.5 °F - 69.4 °F 79% 29.92 in 10.0 mi SSE 11.5 mph - N/A   Overcast
1:55 AM 76.5 °F - 69.8 °F 80% 29.91 in 10.0 mi SSE 12.7 mph 17.3 mph N/A   Overcast
2:15 AM 76.5 °F - 69.8 °F 80% 29.91 in 10.0 mi SSE 12.7 mph - N/A   Overcast
2:35 AM 76.5 °F - 69.8 °F 80% 29.90 in 10.0 mi SSE 13.8 mph 17.3 mph N/A   Overcast
2:55 AM 76.5 °F - 69.8 °F 80% 29.91 in 10.0 mi SSE 12.7 mph 18.4 mph N/A   Overcast
3:15 AM 76.5 °F - 69.8 °F 80% 29.90 in 10.0 mi SSE 13.8 mph 18.4 mph N/A   Overcast
3:35 AM 76.3 °F - 69.4 °F 79% 29.90 in 10.0 mi SSE 11.5 mph - N/A   Mostly Cloudy
3:55 AM 76.1 °F - 69.8 °F 81% 29.89 in 10.0 mi SSE 13.8 mph 17.3 mph N/A   Mostly Cloudy
4:15 AM 75.9 °F - 69.8 °F 81% 29.90 in 10.0 mi SE 12.7 mph 17.3 mph N/A   Scattered Clouds
4:35 AM 76.1 °F - 70.0 °F 81% 29.90 in 10.0 mi SSE 9.2 mph - N/A   Mostly Cloudy
4:55 AM 76.5 °F - 70.0 °F 80% 29.91 in 10.0 mi SSE 9.2 mph - N/A   Overcast
5:15 AM 76.5 °F - 70.0 °F 80% 29.91 in 10.0 mi SSE 10.4 mph - N/A   Overcast
5:35 AM 76.5 °F - 70.0 °F 80% 29.92 in 10.0 mi SSE 11.5 mph - N/A   Overcast
5:55 AM 76.6 °F - 70.0 °F 80% 29.92 in 10.0 mi SSE 12.7 mph 19.6 mph N/A   Overcast
6:15 AM 76.8 °F - 70.2 °F 80% 29.92 in 10.0 mi SSE 8.1 mph - N/A   Overcast
6:55 AM 76.8 °F - 70.5 °F 81% 29.94 in 10.0 mi SSE 8.1 mph - N/A   Overcast
7:15 AM 77.0 °F - 70.7 °F 81% 29.95 in 10.0 mi SSE 9.2 mph - N/A   Overcast
7:35 AM 77.2 °F - 70.5 °F 80% 29.97 in 10.0 mi SSE 8.1 mph - N/A   Overcast
7:55 AM 77.7 °F - 70.5 °F 78% 29.97 in 10.0 mi SE 8.1 mph - N/A   Overcast
8:15 AM 78.1 °F - 70.5 °F 77% 29.98 in 10.0 mi SE 9.2 mph - N/A   Overcast
8:35 AM 78.6 °F - 70.7 °F 77% 29.99 in 10.0 mi SSE 9.2 mph - N/A   Overcast
8:55 AM 79.2 °F - 70.7 °F 75% 29.99 in 10.0 mi SSE 8.1 mph - N/A   Overcast
9:15 AM 79.9 °F - 70.5 °F 73% 29.99 in 10.0 mi SSE 12.7 mph 17.3 mph N/A   Overcast
9:35 AM 80.6 °F 84.2 °F 70.7 °F 72% 29.99 in 10.0 mi SSE 15.0 mph 19.6 mph N/A   Overcast
9:55 AM 81.9 °F 85.8 °F 70.2 °F 68% 29.99 in 10.0 mi SSE 13.8 mph 21.9 mph N/A   Overcast
10:15 AM 82.4 °F 86.3 °F 70.2 °F 66% 30.00 in 10.0 mi SSE 15.0 mph 23.0 mph N/A   Overcast
10:35 AM 82.0 °F 85.9 °F 70.0 °F 67% 30.00 in 10.0 mi SSE 17.3 mph 20.7 mph N/A   Overcast
10:55 AM 81.9 °F 85.6 °F 69.8 °F 67% 30.00 in 10.0 mi SSE 17.3 mph 23.0 mph N/A   Overcast
11:15 AM 82.0 °F 85.9 °F 70.0 °F 67% 29.99 in 10.0 mi SSE 15.0 mph 20.7 mph N/A   Overcast
11:35 AM 82.6 °F 86.6 °F 70.2 °F 66% 29.99 in 10.0 mi SSE 18.4 mph - N/A   Overcast
11:55 AM 83.1 °F 87.3 °F 70.3 °F 65% 29.98 in 10.0 mi SE 18.4 mph 25.3 mph N/A   Overcast
12:15 PM 82.9 °F 87.0 °F 70.2 °F 65% 29.97 in 10.0 mi SSE 16.1 mph 21.9 mph N/A   Overcast
12:35 PM 82.8 °F 86.9 °F 70.3 °F 66% 29.97 in 10.0 mi SE 17.3 mph 20.7 mph N/A   Overcast
12:55 PM 82.4 °F 86.7 °F 70.7 °F 68% 29.96 in 10.0 mi SSE 16.1 mph - N/A   Overcast
1:15 PM 81.7 °F 85.6 °F 70.7 °F 69% 29.95 in 10.0 mi SSE 12.7 mph 18.4 mph N/A   Overcast
1:35 PM 81.7 °F 85.6 °F 70.7 °F 69% 29.94 in 10.0 mi SSE 15.0 mph 18.4 mph N/A   Overcast
1:55 PM 81.9 °F 86.0 °F 70.7 °F 69% 29.94 in 10.0 mi SE 15.0 mph 21.9 mph N/A   Overcast
2:15 PM 81.9 °F 85.8 °F 70.5 °F 68% 29.94 in 10.0 mi SE 16.1 mph 23.0 mph N/A   Overcast
2:35 PM 81.7 °F 85.4 °F 70.3 °F 68% 29.94 in 10.0 mi SE 17.3 mph 23.0 mph N/A   Overcast
2:55 PM 81.5 °F 85.1 °F 70.0 °F 68% 29.94 in 10.0 mi SE 15.0 mph - N/A   Overcast
3:15 PM 81.0 °F 84.4 °F 70.0 °F 69% 29.94 in 10.0 mi SSE 15.0 mph - N/A   Overcast
3:35 PM 80.6 °F 84.1 °F 70.3 °F 71% 29.94 in 10.0 mi SE 12.7 mph - N/A   Overcast
3:55 PM 80.6 °F 83.9 °F 70.2 °F 70% 29.94 in 10.0 mi SE 15.0 mph 20.7 mph N/A   Overcast
4:15 PM 80.6 °F 84.1 °F 70.5 °F 71% 29.94 in 10.0 mi SE 15.0 mph - N/A   Overcast
4:35 PM 80.1 °F 83.4 °F 70.7 °F 73% 29.94 in 10.0 mi SE 13.8 mph - N/A   Overcast
4:55 PM 79.7 °F - 70.9 °F 74% 29.95 in 10.0 mi SE 12.7 mph - N/A   Overcast
5:15 PM 79.5 °F - 70.9 °F 75% 29.95 in 10.0 mi SE 13.8 mph - N/A   Overcast
5:35 PM 79.0 °F - 70.9 °F 76% 29.95 in 10.0 mi SE 12.7 mph 17.3 mph N/A   Overcast
6:15 PM 78.3 °F - 71.1 °F 78% 29.97 in 10.0 mi SE 11.5 mph - N/A   Overcast
6:35 PM 78.1 °F - 70.9 °F 78% 29.97 in 10.0 mi SE 13.8 mph - N/A   Overcast
6:55 PM 78.1 °F - 71.1 °F 79% 29.98 in 10.0 mi SE 13.8 mph - N/A   Overcast
7:15 PM 78.3 °F - 70.9 °F 78% 29.99 in 10.0 mi SE 13.8 mph - N/A   Overcast
7:35 PM 78.3 °F - 70.5 °F 77% 29.99 in 10.0 mi SE 12.7 mph 20.7 mph N/A   Overcast
7:55 PM 78.3 °F - 70.2 °F 76% 29.99 in 10.0 mi SE 11.5 mph - N/A   Mostly Cloudy
8:15 PM 78.1 °F - 70.5 °F 77% 30.00 in 10.0 mi SE 13.8 mph - N/A   Overcast
8:35 PM 78.3 °F - 70.5 °F 77% 29.99 in 10.0 mi SE 13.8 mph 18.4 mph N/A   Overcast
8:55 PM 78.1 °F - 70.0 °F 76% 29.99 in 10.0 mi SE 11.5 mph - N/A   Overcast
9:15 PM 77.7 °F - 70.0 °F 77% 30.00 in 10.0 mi SE 13.8 mph 18.4 mph N/A   Mostly Cloudy
9:55 PM 77.0 °F - 70.0 °F 79% 30.00 in 10.0 mi SE 10.4 mph 17.3 mph N/A   Scattered Clouds
10:35 PM 77.0 °F - 69.8 °F 78% 30.00 in 10.0 mi SSE 10.4 mph 16.1 mph N/A   Overcast
10:55 PM 76.8 °F - 69.8 °F 79% 30.00 in 10.0 mi SSE 11.5 mph - N/A   Scattered Clouds